STARLINK-34856

Last updated on Mon Oct 20 2025 00:02:06 GMT+0000 (Coordinated Universal Time)

1 65687U 25212M 25292.23203060 .00110401 00000+0 19622-2 0 9998 2 65687 53.1582 282.8779 0001294 89.8620 270.2537 15.49350970 5532
UTC large
Height (km)
Speed (km/s)
/
Latitude / Longitude
Inclination (degrees)
Orbital Period (minutes)
Azimuth
Elevation
Range (km)
Doppler Factor

Next 0 passes for location: London (51.5072 / 0.1276)

Sorry there are no passes over London.